This is the latest recevied weather packets stored in our database for station/object KJ4EWA. If no packets are shown the sender has not sent any weather packets the latest 10 day(s).
| Time | Temp. | Humidity | Pressure | Rain* | Wind** | Luminosity | Snow |
|---|---|---|---|---|---|---|---|
| 1778203969 | 21.67° C | 99% | 1016.2 hPa | 0 mm | - | 0 W/m² | - |
| 1778203666 | 22.22° C | 99% | 1016.4 hPa | 0 mm | - | 0 W/m² | - |
| 1778203363 | 22.22° C | 99% | 1016.4 hPa | 0 mm | - | 0 W/m² | - |
| 1778203061 | 22.22° C | 99% | 1016.3 hPa | 0 mm | - | 0 W/m² | - |
| 1778202758 | 22.22° C | 99% | 1016.5 hPa | 0 mm | - | 0 W/m² | - |
| 1778202455 | 22.22° C | 99% | 1016.3 hPa | 0 mm | - | 0 W/m² | - |
| 1778202153 | 22.22° C | 99% | 1016.7 hPa | 0 mm | - | 0 W/m² | - |
| 1778201850 | 22.78° C | 99% | 1016.5 hPa | 0 mm | - | 0 W/m² | - |
| 1778201547 | 22.78° C | 99% | 1016.4 hPa | 0 mm | - | 0 W/m² | - |
| 1778201242 | 22.78° C | 99% | 1016.4 hPa | 0 mm | - | 0 W/m² | - |
| 1778200939 | 22.78° C | 99% | 1016.3 hPa | 0 mm | - | 0 W/m² | - |
| 1778200635 | 22.78° C | 99% | 1016.3 hPa | 0 mm | - | 0 W/m² | - |
| 1778200333 | 22.78° C | 99% | 1016.1 hPa | 0 mm | - | 0 W/m² | - |
| 1778200029 | 22.78° C | 99% | 1016.2 hPa | 0 mm | - | 0 W/m² | - |
| 1778199727 | 22.78° C | 99% | 1016 hPa | 0 mm | - | 0 W/m² | - |
| 1778199422 | 23.33° C | 99% | 1016.1 hPa | 0 mm | - | 1 W/m² | - |
| 1778199118 | 23.33° C | 99% | 1016 hPa | 0 mm | - | 1 W/m² | - |
| 1778198814 | 23.33° C | 99% | 1015.6 hPa | 0 mm | - | 4 W/m² | - |
| 1778198512 | 23.33° C | 99% | 1015.9 hPa | 0 mm | - | 10 W/m² | - |
| 1778198208 | 23.89° C | 99% | 1015.8 hPa | 0 mm | - | 16 W/m² | - |
| 1778197906 | 23.89° C | 99% | 1015.6 hPa | 0 mm | - | 17 W/m² | - |
| 1778197602 | 23.89° C | 99% | 1015.7 hPa | 0 mm | - | 21 W/m² | - |
| 1778197299 | 23.89° C | 99% | 1015.7 hPa | 0 mm | - | 22 W/m² | - |
| 1778196996 | 23.89° C | 99% | 1016.2 hPa | 0 mm | - | 24 W/m² | - |
| 1778196694 | 24.44° C | 99% | 1016.1 hPa | 0 mm | - | 34 W/m² | - |
* Rain latest hour (hover to see other rain measurements)
** Current wind speed in m/s (hover to see current wind gust speed)